Weather History for KBLI - February, 2013

Change the Weather History Date:

Wednesday, February 13, 2013

  Actual Average Record
Temperature  
Mean Temperature 45 °F 41 °F  
Max Temperature 48 °F 48 °F 60 °F (2010)
Min Temperature 42 °F 33 °F 7 °F (1949)
Degree Days  
Heating Degree Days 20 24  
Month to date heating degree days 323  
Cooling Degree Days 0 0  
Month to date cooling degree days 0  
Year to date cooling degree days 0  
Moisture  
Dew Point 39 °F    
Average Humidity 78    
Maximum Humidity 87    
Minimum Humidity 74    
Precipitation  
Precipitation 0.00 in 0.10 in 2.40 in (1982)
Month to date precipitation 1.47  
Year to date precipitation 6.14  
Sea Level Pressure  
Sea Level Pressure 30.41 in    
Wind  
Wind Speed 7 mph (SSE)    
Max Wind Speed 10 mph    
Max Gust Speed 20 mph    
Visibility 10 miles    
Events      
T = Trace of Precipitation, MM = Missing Value Source: NWS Daily Summary

Daily Weather History Graph

Daily Weather History Graph

Search for Another Location

Airport or City:

Trip Planner

Search our weather history database for the weather conditions in past years. The results will help you decide how hot, cold, wet, or windy it might be!

Date:

Astronomy

Feb. 13, 2013 Rise Set
Actual Time 7:20 AM PST 5:28 PM PST
Civil Twilight 6:48 AM PST 6:01 PM PST
Nautical Twilight 6:11 AM PST 6:38 PM PST
Astronomical Twilight 5:34 AM PST 7:14 PM PST
Moon 8:29 AM PST (2/13) 10:03 PM PST (2/13)
Length of Visible Light 11h 12m
Length of Day
10h 07m
Waxing Crescent, 14% of the Moon is Illuminated
Feb 13
Waxing Crescent
Feb 17
First Quarter
Feb 25
Full
Mar 4
Last Quarter
Mar 11
New

Hourly Weather History & Observations

Time (PST) Temp. Windchill Dew Point Humidity Pressure Visibility Wind Dir Wind Speed Gust Speed Precip Events Conditions
12:50 AM 46.4 °F 41.9 °F 42.8 °F 87% 30.27 in 10.0 mi South 9.2 mph 19.6 mph N/A   Mostly Cloudy
12:53 AM 46.9 °F - 41.0 °F 80% 30.29 in 10.0 mi South 9.2 mph 19.6 mph N/A   Mostly Cloudy
1:53 AM 46.0 °F 41.9 °F 39.0 °F 76% 30.31 in 10.0 mi South 8.1 mph - N/A   Clear
2:53 AM 45.0 °F 41.8 °F 37.9 °F 76% 30.32 in 10.0 mi South 5.8 mph - N/A   Clear
3:53 AM 45.0 °F 40.6 °F 39.0 °F 80% 30.34 in 10.0 mi South 8.1 mph - N/A   Clear
4:53 AM 44.1 °F 42.5 °F 37.9 °F 79% 30.35 in 10.0 mi South 3.5 mph - N/A   Clear
5:53 AM 44.1 °F 40.1 °F 37.9 °F 79% 30.36 in 10.0 mi SSE 6.9 mph - N/A   Clear
6:53 AM 43.0 °F 39.5 °F 37.9 °F 82% 30.37 in 10.0 mi SE 5.8 mph - N/A   Mostly Cloudy
7:53 AM 44.1 °F 40.8 °F 37.9 °F 79% 30.39 in 10.0 mi SSE 5.8 mph - N/A   Mostly Cloudy
8:53 AM 45.0 °F 39.7 °F 39.0 °F 80% 30.40 in 10.0 mi SSE 10.4 mph - N/A   Overcast
9:53 AM 46.0 °F 42.5 °F 39.0 °F 76% 30.42 in 10.0 mi SSE 6.9 mph - N/A   Mostly Cloudy
10:53 AM 46.9 °F - 39.9 °F 77% 30.44 in 10.0 mi SSE 8.1 mph - N/A   Clear
11:53 AM 46.9 °F - 39.9 °F 77% 30.44 in 10.0 mi South 6.9 mph - N/A   Scattered Clouds
12:53 PM 48.0 °F - 39.9 °F 74% 30.44 in 10.0 mi SSE 9.2 mph - N/A   Scattered Clouds
1:53 PM 48.0 °F - 41.0 °F 77% 30.43 in 10.0 mi SSE 8.1 mph - N/A   Overcast
2:53 PM 46.9 °F - 39.9 °F 77% 30.43 in 10.0 mi SSE 10.4 mph - N/A   Mostly Cloudy
3:53 PM 48.0 °F - 39.9 °F 74% 30.44 in 10.0 mi SSE 8.1 mph - N/A   Overcast
4:53 PM 46.9 °F - 39.0 °F 74% 30.45 in 10.0 mi SSE 6.9 mph - N/A   Overcast
5:53 PM 46.0 °F 43.9 °F 39.0 °F 76% 30.45 in 10.0 mi SSE 4.6 mph - N/A   Overcast
6:53 PM 45.0 °F 42.6 °F 39.0 °F 80% 30.45 in 10.0 mi South 4.6 mph - N/A   Overcast
7:53 PM 45.0 °F 42.6 °F 39.0 °F 80% 30.47 in 10.0 mi SSE 4.6 mph - N/A   Overcast
8:53 PM 45.0 °F 41.2 °F 37.9 °F 76% 30.47 in 10.0 mi SSE 6.9 mph - N/A   Overcast
9:53 PM 42.1 °F 40.2 °F 37.0 °F 82% 30.49 in 10.0 mi South 3.5 mph - N/A   Mostly Cloudy
10:53 PM 44.1 °F 41.5 °F 37.9 °F 79% 30.50 in 10.0 mi SE 4.6 mph - N/A   Overcast
11:53 PM 43.0 °F 41.3 °F 37.9 °F 82% 30.51 in 10.0 mi SE 3.5 mph - N/A   Overcast